Date,TemperatureHighF,TemperatureAvgF,TemperatureLowF,DewpointHighF,DewpointAvgF,DewpointLowF,HumidityHigh,HumidityAvg,HumidityLow,PressureMaxIn,PressureMinIn,WindSpeedMaxMPH,WindSpeedAvgMPH,GustSpeedMaxMPH,PrecipitationSumIn
2013-3-1,27,25,22,14,12,10,64,59,54,30.74,30.60,2,0,4,0.00
2013-3-2,54,41,25,26,22,19,83,49,26,30.73,30.16,4,2,7,0.00
2013-3-3,54,41,32,32,24,18,85,53,25,30.32,29.72,8,2,17,0.01
2013-3-4,49,34,17,34,22,4,92,64,25,30.60,29.77,11,3,19,0.02
2013-3-5,46,30,11,15,8,0,85,43,19,30.72,30.11,62,2,84,3.50
2013-3-6,58,44,30,16,11,1,45,28,10,30.29,29.70,13,3,21,0.00
2013-3-7,44,39,34,18,15,11,53,38,28,30.04,29.88,7,2,13,0.00
2013-3-8,46,37,29,32,26,14,96,69,33,29.95,29.74,9,2,14,3.51
2013-3-9,36,29,20,30,25,14,94,84,74,30.43,29.76,7,1,11,0.15
2013-3-10,44,29,17,18,15,11,81,59,27,30.59,30.15,4,1,9,0.04
2013-3-11,38,26,22,23,18,17,81,72,50,30.49,30.24,2,1,4,0.00
2013-3-12,53,43,34,29,25,21,70,50,32,30.42,30.10,6,2,10,0.00
2013-3-13,35,33,32,25,24,23,74,70,65,30.53,30.45,2,2,4,0.00
2013-3-14,64,52,33,26,20,14,60,30,15,30.54,30.02,5,2,9,0.00
2013-3-15,51,44,42,19,17,13,39,33,23,30.26,29.90,3,2,6,0.00
2013-3-16,47,43,41,32,30,26,47,40,38,29.97,29.87,4,2,9,0.00
2013-3-17,52,44,15,22,4,-28,35,19,9,30.18,29.58,32,7,32,3.70
2013-3-18,48,38,28,11,6,-7,47,28,10,30.17,29.87,9,2,21,3.70
2013-3-19,50,38,30,12,5,-8,45,28,9,30.41,30.03,8,2,12,3.70
2013-3-20,53,40,28,22,11,-1,48,31,15,30.41,29.82,7,2,13,0.00
2013-3-21,44,36,29,32,21,-3,95,59,18,30.08,29.75,8,2,15,0.06
2013-3-22,41,24,15,32,-7,-26,47,26,12,30.12,29.72,11,5,62,3.76
2013-3-23,29,21,14,15,1,-7,68,42,20,30.50,30.10,11,3,19,0.00
2013-3-24,35,22,11,8,0,-11,66,43,13,30.53,30.11,10,2,16,0.00
2013-3-25,41,25,7,8,-1,-13,70,38,9,30.68,30.11,7,2,11,0.00
2013-3-26,57,40,25,17,7,-2,59,31,9,30.37,29.72,6,2,15,0.00
2013-3-27,67,43,29,22,9,-6,61,29,6,30.22,29.70,99,2,99,3.76
2013-3-28,63,51,40,16,6,-9,32,17,5,30.13,29.77,7,2,11,0.00
2013-3-29,49,43,37,22,18,12,53,38,24,30.25,30.04,4,1,6,0.00